Flag for U.S.A. Weather past 2 weeks in Midland, Texas, U.S.A.

Now
76 °F

Sunny.


Feels Like: 77 °F
Forecast: 48 / 60 °F
Wind: 5 mph from West

Location: Midland - Midland Airpark

Current Time: Jan 28, 2015 at 6:17:23 PM

Latest Report: Jan 28, 2015 at 5:35 PM


Visibility: 10 mi

Pressure: 30.05 "Hg

Humidity: 29%

Dew point: 42 °F

Location of MidlandLocation

Historic Weather in Midland — Graph

°F

Midland temperature yesterday

Maximum temperature yesterday: 74 °F (at 4:15 PM)
Minimum temperature yesterday: 40 °F (at 7:35 AM)
Average temperature yesterday: 56 °F

Past Weeks' High & Low Weather Summary

 TemperatureHumidityPressure
High79 °F (Jan 28, 3:15 PM)100% (Jan 14, 1:15 AM)30.40 "Hg (Jan 14, 1:15 AM)
Low29 °F (Jan 23, 7:15 AM)13% (Jan 19, 4:15 PM)29.94 "Hg (Jan 20, 5:15 AM)
Average47 °F61%30.21 "Hg
* Reported Jan 13 5:15 PM — Jan 28 5:15 PM, Midland, Weather by CustomWeather, © 2014

Note: Actual official high and low records may vary slightly from our data, if they occured in-between our weather recording intervals... More about our weather records

Advertising

Midland weather history for previous 24 hours

 ConditionsComfort  
Time TempWeatherWind HumidityBarometerVisibility
5:15 PM
Jan 28
77 °FSunny.7 mph28%30.05 "Hg10 mi
4:55 PM78 °FSunny.10 mph28%30.05 "Hg10 mi
4:35 PM79 °FSunny.8 mph26%30.05 "Hg10 mi
4:15 PM79 °FSunny.10 mph25%30.05 "Hg10 mi
3:55 PM79 °FSunny.10 mph25%30.06 "Hg10 mi
3:15 PM79 °FSunny.12 mph26%30.06 "Hg10 mi
2:55 PM78 °FSunny.8 mph27%30.06 "Hg10 mi
2:35 PM78 °FSunny.13 mph28%30.07 "Hg10 mi
2:15 PM77 °FSunny.7 mph30%30.07 "Hg10 mi
1:55 PM76 °FSunny.6 mph31%30.08 "Hg10 mi
1:15 PM75 °FSunny.5 mph33%30.10 "Hg10 mi
12:55 PM75 °FSunny.8 mph33%30.10 "Hg10 mi
12:35 PM74 °FSunny.6 mph34%30.13 "Hg10 mi
12:15 PM74 °FSunny.14 mph35%30.16 "Hg10 mi
11:55 AM72 °FSunny.12 mph39%30.16 "Hg10 mi
11:35 AM72 °FSunny.10 mph39%30.16 "Hg10 mi
11:15 AM70 °FSunny.7 mph42%30.16 "Hg10 mi
10:55 AM66 °FSunny.9 mph48%30.15 "Hg10 mi
10:15 AM64 °FSunny.6 mph50%30.16 "Hg10 mi
9:55 AM59 °FSunny.5 mph56%30.16 "Hg10 mi
9:15 AM57 °FSunny.6 mph59%30.16 "Hg10 mi
8:55 AM54 °FSunny.6 mph66%30.16 "Hg10 mi
8:35 AM50 °FSunny.5 mph74%30.16 "Hg10 mi
8:15 AM49 °FSunny.No wind72%30.15 "Hg10 mi
7:55 AM48 °FSunny.5 mph73%30.15 "Hg10 mi
7:35 AM48 °FClear.3 mph74%30.14 "Hg10 mi
7:15 AM48 °FClear.3 mph72%30.14 "Hg10 mi
6:55 AM47 °FClear.5 mph72%30.14 "Hg10 mi
6:35 AM45 °FClear.5 mph76%30.14 "Hg10 mi
6:15 AM44 °FClear.3 mph77%30.13 "Hg10 mi
5:55 AM50 °FClear.5 mph64%30.13 "Hg10 mi
5:35 AM51 °FClear.5 mph62%30.13 "Hg10 mi
5:15 AM49 °FClear.6 mph65%30.13 "Hg10 mi
4:55 AM48 °FClear.3 mph66%30.13 "Hg10 mi
4:35 AM47 °FClear.3 mph69%30.13 "Hg10 mi
4:15 AM48 °FClear.No wind67%30.13 "Hg10 mi
3:55 AM49 °FClear.No wind65%30.13 "Hg10 mi
3:35 AM53 °FClear.No wind54%30.13 "Hg10 mi
3:15 AM53 °FClear.No wind56%30.14 "Hg10 mi
2:55 AM56 °FClear.5 mph50%30.14 "Hg10 mi
2:35 AM55 °FClear.5 mph50%30.14 "Hg10 mi
2:15 AM55 °FClear.6 mph50%30.14 "Hg10 mi
1:55 AM56 °FClear.5 mph48%30.14 "Hg10 mi
1:35 AM56 °FClear.6 mph48%30.15 "Hg10 mi
1:15 AM54 °FClear.5 mph51%30.15 "Hg10 mi
12:55 AM55 °FClear.No wind49%30.16 "Hg10 mi
12:15 AM57 °FClear.No wind45%30.17 "Hg10 mi
11:55 PM
Jan 27
56 °FClear.No wind46%30.17 "Hg10 mi
11:35 PM56 °FClear.3 mph47%30.17 "Hg10 mi
11:15 PM56 °FClear.3 mph47%30.17 "Hg10 mi
10:55 PM57 °FClear.5 mph44%30.16 "Hg10 mi
10:35 PM57 °FClear.6 mph44%30.17 "Hg10 mi
10:15 PM57 °FClear.5 mph45%30.16 "Hg10 mi
9:55 PM57 °FClear.5 mph46%30.16 "Hg10 mi
9:15 PM59 °FClear.5 mph42%30.17 "Hg10 mi
8:55 PM60 °FClear.6 mph39%30.17 "Hg10 mi
8:35 PM61 °FClear.6 mph38%30.17 "Hg10 mi
8:15 PM61 °FClear.6 mph38%30.17 "Hg10 mi
7:55 PM63 °FClear.5 mph34%30.17 "Hg10 mi
7:15 PM66 °FClear.6 mph30%30.17 "Hg10 mi
6:55 PM67 °FClear.5 mph28%30.17 "Hg7 mi
6:35 PM67 °FClear.6 mph28%30.16 "Hg10 mi
6:15 PM71 °FSunny.3 mph24%30.16 "Hg10 mi
Weather by CustomWeather, © 2014

See weather overviewHow to use our weather pages